Regional Weather Roundup
Issued by NWS

Home | Current Version | Previous Version | Text Only | Print | Product List | Glossary Off
Versions: 1 2 3 4 5 6 7 8 9 10 11 12 13 14 15 16 17 18 19 20 21 22 23 24 25 26 27 28 29 30 31 32 33 34 35 36 37 38 39 40 41 42 43 44 45 46 47 48 49 50

000
ASUS43 KDTX 210410
RWRMI
MICHIGAN HOURLY REGIONAL WEATHER ROUNDUP
NATIONAL WEATHER SERVICE DETROIT/PONTIAC MI
1200 AM EDT SUN SEP 21 2014

NOTE: "FAIR" INDICATES FEW OR NO CLOUDS BELOW 12,000 FEET WITH NO
SIGNIFICANT WEATHER AND/OR OBSTRUCTION TO VISIBILITY.

MIZ047>049-052>055-059>063-066>070-074>076-081>083-210500-
SOUTHEAST LOWER MICHIGAN

CITY           SKY/WX    TMP DP  RH WIND       PRES   REMARKS
ADRIAN         CLOUDY    64  63  96 SW13      29.82F
ALMA           MOCLDY    64  63  96 SW6       29.73F
ANN ARBOR      CLOUDY    65  62  90 SW8       29.80F
BAD AXE        CLOUDY    65  65 100 SW9       29.73F
CARO           CLOUDY    65  64  97 SW8       29.73F
DETROIT CITY   CLOUDY    67  62  84 SW10      29.79F
DETROIT        CLOUDY    65  63  93 S13       29.80F
FLINT          CLEAR     64  60  87 SW9       29.76F
GROSSE ILE     CLOUDY    66  63  88 SW7       29.79F
HILLSDALE      PTCLDY    65  65 100 SW7       29.81S
HOWELL         CLOUDY    63  62  96 S6        29.77F

CITY           SKY/WX    TMP DP  RH WIND       PRES   REMARKS
JACKSON        CLOUDY    65  63  93 SW10      29.79F
LAMBERTVILLE   MOCLDY    64  61  88 S8        29.82S
LANSING        CLOUDY    63  61  93 S9        29.76F
LAPEER         MOCLDY    62  60  91 SW6       29.76F
MASON          CLOUDY    64  62  94 SW7       29.77F
MONROE         MOCLDY    64  63  94 SW7       29.79F
MT. CLEMENS    CLOUDY    65  65 100 SW14G22   29.76F
PONTIAC        CLOUDY    63  61  93 SW8       29.77F
PORT HOPE        N/A     66  63  90 SW9       29.70S
PORT HURON     CLOUDY    63  63 100 SW8       29.77S
TRI CITIES     PTCLDY    66  63  90 S9        29.72F
TROY           CLOUDY    65  63  91 SW12      29.80F
SAGINAW HB     MOCLDY    64  64 100 SW7       29.72F
$$
MIZ043>046-050>051-056>058-064>065-071>073-077>080-210500-
SOUTHWEST LOWER MICHIGAN

CITY           SKY/WX    TMP DP  RH WIND       PRES   REMARKS
BATTLE CREEK   CLOUDY    65  63  93 SW14      29.78F
BENTON HARBOR  CLEAR     65  63  93 S6        29.76F
BIG RAPIDS     CLOUDY    64  64 100 SW7       29.70F
COLDWATER      MOCLDY    66  64  96 SW6       29.80S
FREMONT        FAIR      60  60  99 CALM      29.70F FOG
HOLLAND        CLEAR     67  64  90 SW8       29.74F
GRAND RAPIDS   CLEAR     66  66 100 SW8       29.74F FOG
IONIA          CLOUDY    66  65  96 SW8       29.73F FOG
KALAMAZOO      CLOUDY    65  63  93 SW10      29.78S FOG
LUDINGTON      PTCLDY    63  61  92 W7        29.67F
MARSHALL       CLOUDY    64  63  96 SW8       29.78F
MOUNT PLEASANT CLOUDY    64  63  94 SW7       29.71F
MUSKEGON       CLEAR     68  62  81 SW14G22   29.71F
SOUTH HAVEN    CLEAR     66  65  96 SW6       29.75F
$$
MIZ016>042-210500-
NORTHERN LOWER MICHIGAN

CITY           SKY/WX    TMP DP  RH WIND       PRES   REMARKS
ALPENA         CLOUDY    63  61  93 CALM      29.67F
BEAVER ISLAND  PTCLDY    56  55  94 N3        29.68S
BELLAIRE       CLOUDY    62  60  94 CALM      29.67F FOG
CADILLAC       MOCLDY    62  62  99 W3        29.69S
CHARLEVOIX     PTCLDY    60  59  97 CALM      29.70F
FRANKFORT      CLOUDY    61  58  89 NE3       29.66F
GAYLORD        CLOUDY    61  59  93 CALM      29.70S
GRAYLING       RAIN      63  62  97 W5        29.70S
HARBOR SPRINGS MOCLDY    59  57  92 CALM      29.68R
HOUGHTON LAKE  CLOUDY    63  62  97 S7        29.69F
MANISTEE       CLOUDY    64  59  82 NW6       29.68F
OSCODA         PTCLDY    64  63  97 SW10      29.68S
PELLSTON       MOCLDY    55  55 100 CALM      29.68S
ROGERS CITY    CLOUDY    61  60  97 W3        29.68S
TRAVERSE CITY  CLOUDY    63  61  93 CALM      29.67S
$$
MIZ007>008-015-210500-
EASTERN UPPER MICHIGAN

CITY           SKY/WX    TMP DP  RH WIND       PRES   REMARKS
KINROSS        CLOUDY    55  55 100 W7        29.66S
MACKINAC ISLAN CLOUDY    56  55  97 NW6       29.66F
NEWBERRY       PTCLDY    54  52  94 NW5       29.67S
S. S. MARIE    CLOUDY    53  51  93 NW7       29.66S FOG
MUNISING         N/A     56  52  86 N8        29.70R
$$
MIZ004>006-011>014-085-210500-
CENTRAL UPPER MICHIGAN

CITY           SKY/WX    TMP DP  RH WIND       PRES   REMARKS
MANISTIQUE     PTCLDY    52  51  97 N7        29.67F
ESCANABA       CLOUDY    55  52  88 NE6       29.69R
MENOMINEE      CLOUDY    59  55  88 E16G24    29.66F
SAWYER-GWINN   MOCLDY    54  51  89 N10       29.69F
$$
MIZ001>003-009>011-084-210500-
WESTERN UPPER MICHIGAN

CITY           SKY/WX    TMP DP  RH WIND       PRES   REMARKS
IRON MOUNTAIN  CLOUDY    57  52  83 N6        29.67F
HOUGHTON       CLOUDY    53  50  89 NE7       29.71S
COPPER HARBOR    N/A     52  48  86 CALM      29.72R
IRONWOOD       CLOUDY    55  54  94 SW6       29.66F
$$

ABBREVIATIONS USED IN REMARKS
   TC - TEMPERATURE IN CELSIUS
  WCI - WIND CHILL INDEX
   HX - HEAT INDEX
  VSB - VISIBILITY




USA.gov is the U.S. government's official web portal to all federal, state and local government web resources and services.